TimeCDT,TemperatureF,Dew PointF,Humidity,Sea Level PressureIn,VisibilityMPH,Wind Direction,Wind SpeedMPH,Gust SpeedMPH,PrecipitationIn,Events,Conditions,WindDirDegrees,DateUTC
12:58 AM,69.1,66.9,93,29.94,8.0,Calm,Calm,-,N/A,,Clear,0,2013-09-13 05:58:00
1:58 AM,68.0,66.0,93,29.93,8.0,South,3.5,-,N/A,,Clear,190,2013-09-13 06:58:00
2:58 AM,68.0,66.0,93,29.92,8.0,Calm,Calm,-,N/A,,Clear,0,2013-09-13 07:58:00
3:58 AM,66.9,64.9,93,29.91,8.0,Calm,Calm,-,N/A,,Partly Cloudy,0,2013-09-13 08:58:00
4:58 AM,66.0,64.9,96,29.91,7.0,SSW,3.5,-,N/A,,Clear,200,2013-09-13 09:58:00
5:58 AM,66.0,64.9,96,29.92,8.0,Calm,Calm,-,N/A,,Partly Cloudy,0,2013-09-13 10:58:00
6:58 AM,66.0,64.9,96,29.93,6.0,SSW,3.5,-,N/A,,Scattered Clouds,200,2013-09-13 11:58:00
7:58 AM,72.0,66.9,84,29.93,7.0,Calm,Calm,-,N/A,,Mostly Cloudy,0,2013-09-13 12:58:00
8:58 AM,78.1,66.9,68,29.94,10.0,North,3.5,-,N/A,,Mostly Cloudy,360,2013-09-13 13:58:00
9:58 AM,81.0,68.0,65,29.94,10.0,NW,4.6,-,N/A,,Mostly Cloudy,310,2013-09-13 14:58:00
10:58 AM,84.0,66.0,55,29.93,10.0,NE,4.6,-,N/A,,Clear,40,2013-09-13 15:58:00
11:58 AM,88.0,66.0,48,29.92,10.0,ENE,5.8,-,N/A,,Clear,60,2013-09-13 16:58:00
12:58 PM,89.1,66.0,46,29.90,10.0,Variable,5.8,-,N/A,,Clear,0,2013-09-13 17:58:00
1:58 PM,91.0,68.0,47,29.88,10.0,NW,9.2,-,N/A,,Partly Cloudy,320,2013-09-13 18:58:00
2:58 PM,91.0,66.9,45,29.84,10.0,Variable,4.6,-,N/A,,Clear,0,2013-09-13 19:58:00
3:58 PM,75.9,70.0,82,29.85,10.0,North,5.8,-,0.00,,Overcast,360,2013-09-13 20:58:00
4:58 PM,80.1,70.0,71,29.84,10.0,NW,4.6,-,N/A,,Clear,320,2013-09-13 21:58:00
5:58 PM,82.0,73.0,74,29.86,10.0,NNW,4.6,-,N/A,,Mostly Cloudy,340,2013-09-13 22:58:00
6:58 PM,79.0,73.0,82,29.87,10.0,Calm,Calm,-,N/A,,Partly Cloudy,0,2013-09-13 23:58:00
7:58 PM,77.0,64.9,66,29.89,10.0,North,6.9,-,N/A,,Clear,350,2013-09-14 00:58:00
8:58 PM,75.0,63.0,66,29.90,10.0,Variable,3.5,-,N/A,,Partly Cloudy,0,2013-09-14 01:58:00
9:58 PM,72.0,64.9,78,29.91,10.0,Calm,Calm,-,N/A,,Clear,0,2013-09-14 02:58:00
10:58 PM,75.0,57.9,55,29.91,10.0,NNE,9.2,-,N/A,,Clear,30,2013-09-14 03:58:00
11:58 PM,72.0,57.9,61,29.92,10.0,North,9.2,-,N/A,,Clear,360,2013-09-14 04:58:00